Date String (YYYY-MM-DD hh:mm:ss) UTC,Instrument flags,absolute air pressure of the measurement (hPa),sample flow rate (lpm),inlet stack bypass flow (lpm),air temperature of the measurement (°C),ambient temperature measured by the external sensor (°C),aerosol sample conditioner tube jacket temperature (°C),OPC LED temperature (°C),internal box temperature (°C),relative humidity of the measurement (%),span deviation,mass concentration of particles derived from Lorenz-Mie calculation of OPC scattering (μg/m³),mass concentration of particles derived from Lorenz-Mie calculation of OPC scattering (μg/m³),mass concentration of particles derived from Lorenz-Mie calculation of OPC scattering (μg/m³)
DateTimeUTC,F1_M11,P_M11,Q1_M11,Q2_M11,T1_M11,T2_M11,T3_M11,T4_M11,T5_M11,U1_M11,ZSPAN_M11,X0_M11,X2_M11,X1_M11
2023-09-26 17:00:00,SystemResetWarning,0835.8,5.01,000.00,028.2,026.2,000.0,036.7,029.8,15.3,0002.0,0015.48,0004.94,0003.84
2023-09-26 17:01:00,SystemResetWarning,0835.8,5.01,000.00,028.3,026.4,000.0,036.8,029.9,15.6,0002.1,0015.65,0005.00,0003.85
2023-09-26 17:02:00,SystemResetWarning,0835.8,5.00,000.00,028.3,026.7,000.0,036.8,030.0,15.7,0001.8,0015.53,0005.00,0003.84
2023-09-26 17:03:00,SystemResetWarning,0835.8,5.00,000.00,028.3,026.9,000.0,036.8,030.0,15.2,0001.6,0015.99,0005.00,0003.84
2023-09-26 17:04:00,SystemResetWarning,0835.7,5.00,000.00,028.3,027.0,000.0,036.8,030.1,15.3,0002.0,0016.84,0005.05,0003.86
2023-09-26 17:05:00,SystemResetWarning,0835.7,5.00,000.00,028.4,027.2,000.0,036.8,030.1,15.4,0002.2,0017.20,0005.09,0003.87
2023-09-26 17:06:00,SystemResetWarning,0835.7,5.00,000.00,028.4,027.3,000.0,036.8,030.2,15.4,0001.1,0017.11,0005.13,0003.87
2023-09-26 17:07:00,SystemResetWarning,0835.8,4.99,000.00,028.5,027.0,000.0,036.8,030.2,16.0,0000.0,0016.42,0005.13,0003.86
2023-09-26 17:08:00,SystemResetWarning,0835.8,4.99,000.00,028.4,025.3,000.0,036.8,030.1,15.9,0000.0,0016.64,0005.10,0003.85
2023-09-26 17:09:00,SystemResetWarning,0835.8,5.00,000.00,028.3,024.4,000.0,036.7,030.0,15.9,0000.0,0017.56,0005.09,0003.84
2023-09-26 17:10:00,SystemResetWarning,0835.7,5.01,000.00,028.3,024.6,000.0,036.7,029.8,16.0,0000.0,0018.25,0005.10,0003.85
2023-09-26 17:11:00,SystemResetWarning,0835.7,5.01,000.00,028.2,024.9,000.0,036.7,029.7,16.2,0000.0,0017.89,0005.06,0003.86
2023-09-26 17:12:00,SystemResetWarning,0835.7,5.00,000.00,028.2,025.3,000.0,036.7,029.7,16.5,0000.3,0017.83,0005.03,0003.86
2023-09-26 17:13:00,SystemResetWarning,0835.7,5.00,000.00,028.1,025.6,000.0,036.7,029.7,16.6,0000.0,0018.37,0005.01,0003.85
2023-09-26 17:14:00,SystemResetWarning,0835.7,5.00,000.00,028.1,026.0,000.0,036.7,029.7,16.4,0000.0,0018.61,0004.98,0003.84
2023-09-26 17:15:00,SystemResetWarning,0835.6,4.99,000.00,028.2,026.3,000.0,036.7,029.8,16.8,0000.1,0019.02,0004.93,0003.83
2023-09-26 17:16:00,SystemResetWarning,0835.7,5.00,000.00,028.2,026.5,000.0,036.7,029.9,17.1,0000.8,0019.33,0004.93,0003.83
2023-09-26 17:17:00,SystemResetWarning,0835.8,5.00,000.00,028.2,026.7,000.0,036.7,029.9,17.1,0000.6,0021.16,0004.90,0003.83
2023-09-26 17:18:00,SystemResetWarning,0835.6,5.01,000.00,028.2,026.9,000.0,036.7,030.0,16.9,0001.2,0021.04,0004.90,0003.84
2023-09-26 17:19:00,SystemResetWarning,0835.7,5.00,000.00,028.3,027.1,000.0,036.7,030.0,16.8,0000.5,0020.30,0004.86,0003.84
2023-09-26 17:20:00,SystemResetWarning,0835.8,5.00,000.00,028.3,027.2,000.0,036.7,030.1,17.2,-000.1,0019.31,0004.84,0003.84
2023-09-26 17:21:00,SystemResetWarning,0835.6,5.00,000.00,028.4,027.3,000.0,036.7,030.2,17.0,-000.3,0018.95,0004.88,0003.84
2023-09-26 17:22:00,SystemResetWarning,0835.6,5.00,000.00,028.4,027.4,000.0,036.7,030.2,16.8,-000.0,0019.22,0004.89,0003.83
2023-09-26 17:23:00,SystemResetWarning,0835.6,4.99,000.00,028.4,026.2,000.0,036.7,030.2,17.0,0000.4,0018.38,0004.89,0003.83
2023-09-26 17:24:00,SystemResetWarning,0835.6,5.01,000.00,028.3,024.6,000.0,036.7,030.0,17.1,0000.2,0017.28,0004.86,0003.83
2023-09-26 17:25:00,SystemResetWarning,0835.6,5.01,000.00,028.3,024.5,000.0,036.6,029.9,17.5,0000.0,0017.35,0004.86,0003.84
2023-09-26 17:26:00,SystemResetWarning,0835.6,5.01,000.00,028.2,024.8,000.0,036.6,029.7,17.6,0000.4,0016.27,0004.83,0003.83
2023-09-26 17:27:00,SystemResetWarning,0835.6,5.00,000.00,028.1,025.1,000.0,036.6,029.7,17.2,0000.4,0015.20,0004.75,0003.82
2023-09-26 17:28:00,SystemResetWarning,0835.6,4.99,000.00,028.1,025.5,000.0,036.6,029.7,17.0,0000.8,0014.42,0004.75,0003.82
2023-09-26 17:29:00,SystemResetWarning,0835.7,5.00,000.00,028.1,025.8,000.0,036.6,029.7,16.9,0001.1,0014.61,0004.78,0003.81
2023-09-26 17:30:00,SystemResetWarning,0835.6,5.00,000.00,028.1,026.1,000.0,036.6,029.8,17.0,0001.5,0015.22,0004.81,0003.81
2023-09-26 17:31:00,SystemResetWarning,0835.6,5.00,000.00,028.1,026.4,000.0,036.6,029.8,17.5,0001.9,0015.30,0004.86,0003.82
2023-09-26 17:32:00,SystemResetWarning,0835.6,4.99,000.00,028.2,026.6,000.0,036.6,029.9,17.7,0001.4,0015.83,0004.88,0003.82
2023-09-26 17:33:00,SystemResetWarning,0835.6,5.00,000.00,028.2,026.8,000.0,036.6,029.9,17.3,0001.2,0015.71,0004.87,0003.82
2023-09-26 17:34:00,SystemResetWarning,0835.6,5.00,000.00,028.2,027.0,000.0,036.7,030.0,17.5,0000.9,0015.89,0004.90,0003.82
2023-09-26 17:35:00,SystemResetWarning,0835.6,5.00,000.00,028.3,027.2,000.0,036.7,030.1,17.4,0001.7,0016.45,0004.92,0003.84
2023-09-26 17:36:00,SystemResetWarning,0835.6,5.00,000.00,028.3,027.3,000.0,036.7,030.1,16.9,0000.0,0017.07,0004.93,0003.84
2023-09-26 17:37:00,SystemResetWarning,0835.5,5.01,000.00,028.4,027.4,000.0,036.7,030.2,16.9,0000.0,0016.88,0004.97,0003.84
2023-09-26 17:38:00,SystemResetWarning,0835.5,4.99,000.00,028.4,027.0,000.0,036.7,030.2,16.9,0000.0,0017.24,0005.05,0003.84
2023-09-26 17:39:00,SystemResetWarning,0835.5,4.99,000.00,028.4,025.3,000.0,036.7,030.1,17.0,0000.0,0017.05,0005.11,0003.84
2023-09-26 17:40:00,SystemResetWarning,0835.5,5.02,000.00,028.3,024.5,000.0,036.6,029.9,16.6,0000.0,0016.14,0005.05,0003.83
2023-09-26 17:41:00,SystemResetWarning,0835.5,4.99,000.00,028.2,024.7,000.0,036.6,029.8,16.5,0000.0,0016.37,0005.07,0003.84
2023-09-26 17:42:00,SystemResetWarning,0835.6,4.99,000.00,028.2,025.0,000.0,036.6,029.7,16.5,0000.0,0016.55,0005.07,0003.84
2023-09-26 17:43:00,SystemResetWarning,0835.5,5.01,000.00,028.1,025.4,000.0,036.6,029.7,16.7,0000.0,0017.43,0005.03,0003.83
2023-09-26 17:44:00,SystemResetWarning,0835.5,5.01,000.00,028.1,025.8,000.0,036.6,029.7,16.7,0000.0,0016.05,0005.01,0003.84
2023-09-26 17:45:00,SystemResetWarning,0835.5,4.99,000.00,028.1,026.1,000.0,036.6,029.8,17.0,0000.0,0015.35,0004.99,0003.85
2023-09-26 17:46:00,SystemResetWarning,0835.5,4.99,000.00,028.2,026.4,000.0,036.6,029.8,16.8,0000.0,0015.07,0004.98,0003.84
2023-09-26 17:47:00,SystemResetWarning,0835.5,4.99,000.00,028.2,026.6,000.0,036.6,029.9,16.7,0000.0,0013.78,0005.02,0003.84
2023-09-26 17:48:00,SystemResetWarning,0835.6,5.01,000.00,028.2,026.8,000.0,036.6,030.0,16.3,0000.0,0014.53,0005.04,0003.84
2023-09-26 17:49:00,SystemResetWarning,0835.5,5.01,000.00,028.2,027.0,000.0,036.6,030.0,16.2,0000.0,0014.97,0005.00,0003.84
2023-09-26 17:50:00,SystemResetWarning,0835.5,4.99,000.00,028.3,027.2,000.0,036.7,030.1,15.9,0000.0,0014.64,0004.93,0003.85
2023-09-26 17:51:00,SystemResetWarning,0835.5,4.99,000.00,028.3,027.1,000.0,036.7,030.1,16.2,0000.0,0015.28,0004.98,0003.86
2023-09-26 17:52:00,SystemResetWarning,0835.5,5.00,000.00,028.3,025.8,000.0,036.7,030.1,16.2,0000.0,0014.14,0004.96,0003.85
2023-09-26 17:53:00,SystemResetWarning,0835.5,5.00,000.00,028.2,024.4,000.0,036.6,029.9,16.3,0000.0,0014.04,0005.00,0003.85
2023-09-26 17:54:00,SystemResetWarning,0835.5,5.01,000.00,028.2,024.5,000.0,036.6,029.8,16.1,0000.0,0012.51,0005.00,0003.86
2023-09-26 17:55:00,SystemResetWarning,0835.5,5.00,000.00,028.1,024.8,000.0,036.6,029.6,16.5,0000.0,0014.24,0005.01,0003.85
2023-09-26 17:56:00,SystemResetWarning,0835.5,5.00,000.00,028.1,025.2,000.0,036.6,029.6,16.3,0000.0,0015.19,0005.04,0003.84
2023-09-26 17:57:00,SystemResetWarning,0835.5,5.00,000.00,028.1,025.6,000.0,036.6,029.6,16.4,0000.0,0015.86,0005.10,0003.84
2023-09-26 17:58:00,SystemResetWarning,0835.5,5.00,000.00,028.1,025.9,000.0,036.6,029.7,16.1,0000.0,0016.40,0005.14,0003.84
2023-09-26 17:59:00,SystemResetWarning,0835.4,5.00,000.00,028.1,026.2,000.0,036.6,029.7,16.0,0000.0,0015.68,0005.15,0003.84
